FW1310 Weather Reports


time (UTC)temp
C
wind
direction
speed
KPH
gust
KPH
rain 1hr
cm
rain 24hr
cm
rain mn
cm
humidity
%
barometer
mb
20260903064004 27 201 8.0 11.3 0.00 0.00 0.00 77 997.3
20260903063503 27 174 9.7 14.5 0.00 0.00 0.00 77 997.4
20260903063003 26 201 6.4 11.3 0.00 0.00 0.00 78 997.1
20260903062003 26 212 3.2 9.7 0.00 0.00 0.00 81 997.5
20260903061003 26 177 8.0 11.3 0.00 0.00 0.00 81 997.4
20260903060504 26 156 6.4 11.3 0.00 0.00 0.00 80 997.5
20260903060003 26 130 6.4 11.3 0.00 0.00 0.00 81 997.4
20260903055503 26 197 4.8 9.7 0.00 0.00 0.00 81 997.4
20260903055003 26 171 4.8 8.0 0.00 0.00 0.00 81 997.5
20260903054503 26 180 3.2 11.3 0.00 0.00 0.00 81 997.4
20260903054003 26 120 4.8 9.7 0.00 0.00 0.00 81 997.3
20260903053504 26 187 4.8 9.7 0.00 0.00 0.00 81 997.2
20260903053004 26 134 3.2 8.0 0.00 0.00 0.00 81 997.4
20260903051003 26 146 8.0 12.9 0.00 0.00 0.00 80 997.3
20260903050504 26 170 4.8 11.3 0.00 0.00 0.00 80 997.1
20260903050003 26 176 4.8 9.7 0.00 0.00 0.00 79 997.3
20260903045504 27 143 3.2 12.9 0.00 0.00 0.00 79 997.2
20260903045004 27 158 3.2 8.0 0.00 0.00 0.00 78 997.3
20260903044504 27 146 3.2 8.0 0.00 0.00 0.00 77 997.3
20260903044003 27 155 3.2 9.7 0.00 0.00 0.00 76 997.3
20260903043503 27 153 4.8 12.9 0.00 0.00 0.00 76 997.3
20260903042503 27 141 4.8 9.7 0.00 0.00 0.00 75 997.2
20260903042003 27 96 4.8 9.7 0.00 0.00 0.00 74 997.2
20260903041504 27 70 3.2 9.7 0.00 0.00 0.00 74 997.2
20260903041003 27 99 4.8 11.3 0.00 0.00 0.00 73 997.2
20260903040503 28 167 6.4 12.9 0.00 0.00 0.00 72 997.3
20260903040003 28 167 8.0 14.5 0.00 0.00 0.00 72 997.4
20260903035503 28 174 4.8 11.3 0.00 0.00 0.00 72 997.2
20260903035003 28 117 8.0 12.9 0.00 0.00 0.00 71 997.3
20260903034504 28 180 4.8 11.3 0.00 0.00 0.00 70 997.5
20260903034003 28 133 4.8 11.3 0.00 0.00 0.00 69 997.4
20260903033503 28 165 6.4 11.3 0.00 0.00 0.00 68 997.3
20260903033003 29 117 4.8 9.7 0.00 0.00 0.00 66 997.0
20260903032503 29 138 4.8 11.3 0.00 0.00 0.00 65 997.1
20260903032003 29 98 4.8 8.0 0.00 0.00 0.00 64 997.1
20260903031503 30 186 4.8 8.0 0.00 0.00 0.00 64 997.0
20260903031003 30 130 3.2 12.9 0.00 0.00 0.00 63 996.9
20260903030504 30 92 4.8 12.9 0.00 0.00 0.00 62 996.7
20260903030003 30 93 3.2 11.3 0.00 0.00 0.00 62 996.7
20260903025503 31 129 1.6 4.8 0.00 0.00 0.00 62 996.8
20260903025003 31 133 1.6 3.2 0.00 0.00 0.00 60 996.5
20260903024503 31 121 1.6 4.8 0.00 0.00 0.00 59 996.3
20260903024003 31 129 1.6 3.2 0.00 0.00 0.00 59 996.1
20260903023004 31 127 1.6 4.8 0.00 0.00 0.00 59 996.0
20260903022504 31 139 3.2 4.8 0.00 0.00 0.00 58 996.2
20260903022003 31 124 1.6 3.2 0.00 0.00 0.00 58 996.0
20260903021503 31 136 1.6 4.8 0.00 0.00 0.00 58 996.0
20260903021003 31 138 1.6 3.2 0.00 0.00 0.00 58 995.9
20260903020503 31 133 1.6 3.2 0.00 0.00 0.00 57 995.7
20260903020003 31 130 1.6 4.8 0.00 0.00 0.00 57 995.7
20260903015003 31 140 1.6 1.6 0.00 0.00 0.00 58 995.6
20260903014004 31 151 1.6 3.2 0.00 0.00 0.00 58 995.5
20260903013503 31 123 0.0 3.2 0.00 0.00 0.00 59 995.3
20260903013003 31 141 1.6 3.2 0.00 0.00 0.00 58 995.3
20260903012504 31 104 1.6 1.6 0.00 0.00 0.00 58 995.3
20260903012003 32 119 1.6 1.6 0.00 0.00 0.00 57 995.5
20260903010503 32 138 1.6 3.2 0.00 0.00 0.00 54 995.5
20260903010004 33 168 1.6 4.8 0.00 0.00 0.00 52 995.5
20260903005504 33 204 3.2 3.2 0.00 0.00 0.00 50 995.4
20260903005004 33 95 0.0 3.2 0.00 0.00 0.00 50 995.5
20260903004503 33 84 1.6 3.2 0.00 0.00 0.00 49 995.5
20260903003503 33 102 1.6 3.2 0.00 0.00 0.00 48 995.3
20260903003003 33 94 0.0 1.6 0.00 0.00 0.00 48 995.2
20260903002504 33 106 0.0 3.2 0.00 0.00 0.00 48 995.2
20260903002003 33 96 1.6 3.2 0.00 0.00 0.00 49 995.3
20260903000503 33 113 1.6 3.2 0.00 0.00 0.00 50 995.3
20260903000003 33 84 1.6 4.8 0.00 0.00 0.00 50 995.3
20260902235503 33 71 3.2 4.8 0.00 0.00 0.00 50 995.3
20260902234504 33 131 1.6 3.2 0.00 0.00 0.00 49 995.2
20260902234003 33 172 1.6 3.2 0.00 0.00 0.00 49 995.3
20260902233504 33 126 1.6 4.8 0.00 0.00 0.00 49 995.3
20260902233003 33 134 3.2 8.0 0.00 0.00 0.00 48 995.2
20260902232503 33 107 3.2 4.8 0.00 0.00 0.00 47 995.3
20260902232003 33 163 3.2 4.8 0.00 0.00 0.00 47 995.2
20260902231503 33 159 3.2 4.8 0.00 0.00 0.00 48 995.1
20260902231003 33 159 4.8 11.3 0.00 0.00 0.00 49 995.3
20260902230504 33 182 4.8 9.7 0.00 0.00 0.00 50 995.2
20260902230004 34 169 4.8 19.3 0.00 0.00 0.00 49 995.2
20260902225503 33 124 8.0 19.3 0.00 0.00 0.00 51 995.1
20260902225003 36 105 3.2 14.5 0.00 0.00 0.00 45 995.2
20260902224503 38 79 3.2 4.8 0.00 0.00 0.00 40 995.2
20260902224003 40 137 1.6 1.6 0.00 0.00 0.00 37 995.1
20260902223003 39 65 1.6 4.8 0.00 0.00 0.00 38 995.2
20260902222504 39 331 3.2 4.8 0.00 0.00 0.00 38 995.2
20260902221503 39 153 1.6 8.0 0.00 0.00 0.00 38 995.2
20260902221003 39 113 1.6 3.2 0.00 0.00 0.00 38 995.3
20260902220003 38 266 3.2 4.8 0.00 0.00 0.00 38 995.3
20260902215503 38 74 1.6 9.7 0.00 0.00 0.00 39 995.4
20260902214504 38 87 1.6 4.8 0.00 0.00 0.00 40 995.5
20260902212504 37 92 1.6 8.0 0.00 0.00 0.00 42 995.5
20260902211504 37 63 1.6 9.7 0.00 0.00 0.00 42 995.5
20260902210503 38 38 4.8 11.3 0.00 0.00 0.00 38 995.5
20260902210003 38 78 3.2 4.8 0.00 0.00 0.00 40 995.7
20260902205003 37 62 6.4 12.9 0.00 0.00 0.00 42 995.7
20260902204503 38 85 4.8 11.3 0.00 0.00 0.00 41 995.9
20260902204004 38 47 6.4 12.9 0.00 0.00 0.00 41 996.1
20260902203504 37 179 9.7 19.3 0.00 0.00 0.00 43 996.0
20260902203004 38 80 3.2 11.3 0.00 0.00 0.00 42 996.0
20260902202503 38 64 3.2 8.0 0.00 0.00 0.00 42 996.2
20260902202003 37 86 3.2 4.8 0.00 0.00 0.00 43 996.3
20260902201503 37 121 1.6 8.0 0.00 0.00 0.00 43 996.3
20260902201003 38 45 4.8 8.0 0.00 0.00 0.00 43 996.4
20260902200503 37 118 1.6 4.8 0.00 0.00 0.00 43 996.5
20260902200003 37 90 4.8 9.7 0.00 0.00 0.00 43 996.6
20260902195503 38 82 3.2 11.3 0.00 0.00 0.00 42 996.5
20260902194504 39 141 1.6 4.8 0.00 0.00 0.00 38 996.8
20260902194004 39 109 0.0 4.8 0.00 0.00 0.00 39 996.8
20260902192004 38 159 1.6 3.2 0.00 0.00 0.00 41 997.3
20260902191503 38 145 1.6 3.2 0.00 0.00 0.00 41 997.2
20260902191003 38 106 1.6 3.2 0.00 0.00 0.00 41 997.3
20260902190503 38 147 3.2 4.8 0.00 0.00 0.00 40 997.3
20260902190003 37 161 1.6 11.3 0.00 0.00 0.00 41 997.5
20260902185004 37 72 3.2 4.8 0.00 0.00 0.00 43 997.6
20260902184504 37 246 4.8 8.0 0.00 0.00 0.00 41 997.5
20260902184004 37 31 1.6 4.8 0.00 0.00 0.00 41 997.8
20260902183504 37 236 3.2 4.8 0.00 0.00 0.00 41 998.0
20260902183004 37 246 3.2 8.0 0.00 0.00 0.00 42 998.0
20260902182504 38 89 1.6 3.2 0.00 0.00 0.00 42 998.0
20260902182004 37 188 4.8 11.3 0.00 0.00 0.00 43 998.0
20260902181503 36 79 3.2 4.8 0.00 0.00 0.00 43 998.0
20260902181003 36 81 1.6 9.7 0.00 0.00 0.00 44 998.3
20260902180503 36 116 1.6 3.2 0.00 0.00 0.00 43 998.4
20260902180006 37 105 1.6 3.2 0.00 0.00 0.00 43 998.6
20260902175503 37 110 1.6 4.8 0.00 0.00 0.00 43 998.6
20260902175003 36 165 3.2 4.8 0.00 0.00 0.00 44 998.8
20260902173503 36 70 3.2 8.0 0.00 0.00 0.00 46 998.9
20260902173003 37 113 1.6 4.8 0.00 0.00 0.00 46 999.0
20260902172504 37 297 3.2 4.8 0.00 0.00 0.00 44 999.0
20260902172004 36 129 1.6 3.2 0.00 0.00 0.00 46 999.3
20260902171503 36 97 3.2 3.2 0.00 0.00 0.00 46 999.1
20260902171003 36 151 1.6 9.7 0.00 0.00 0.00 46 999.2
20260902170503 36 303 1.6 4.8 0.00 0.00 0.00 46 999.3
20260902170003 36 95 0.0 8.0 0.00 0.00 0.00 48 999.3
20260902165503 35 142 1.6 4.8 0.00 0.00 0.00 49 999.6
20260902165003 36 35 4.8 8.0 0.00 0.00 0.00 47 999.5
20260902164503 36 122 1.6 3.2 0.00 0.00 0.00 47 999.5
20260902164004 35 80 1.6 16.1 0.00 0.00 0.00 48 999.7
20260902163504 35 256 8.0 16.1 0.00 0.00 0.00 48 999.6
20260902163004 35 117 1.6 4.8 0.00 0.00 0.00 48 999.6
20260902162504 35 352 4.8 8.0 0.00 0.00 0.00 48 999.8
20260902162004 35 78 1.6 3.2 0.00 0.00 0.00 50 999.7
20260902161003 34 304 3.2 9.7 0.00 0.00 0.00 50 999.7
20260902160503 35 293 4.8 9.7 0.00 0.00 0.00 49 999.6
20260902155004 34 209 3.2 9.7 0.00 0.00 0.00 51 999.7
20260902154504 33 74 3.2 4.8 0.00 0.00 0.00 51 999.7
20260902154004 33 44 3.2 4.8 0.00 0.00 0.00 51 999.8
20260902153504 33 65 1.6 3.2 0.00 0.00 0.00 54 999.8
20260902153004 32 92 0.0 3.2 0.00 0.00 0.00 57 1000.0
20260902152503 33 80 1.6 3.2 0.00 0.00 0.00 56 999.8
20260902152004 33 103 3.2 4.8 0.00 0.00 0.00 54 999.8
20260902151503 33 0 3.2 3.2 0.00 0.00 0.00 56 999.8
20260902151003 32 104 3.2 4.8 0.00 0.00 0.00 57 999.8
20260902144503 31 109 1.6 8.0 0.00 0.00 0.00 64 999.9
20260902144003 30 243 3.2 8.0 0.00 0.00 0.00 65 999.7
20260902143504 30 105 0.0 3.2 0.00 0.00 0.00 66 999.9
20260902143003 30 218 3.2 4.8 0.00 0.00 0.00 66 999.7
20260902142503 30 82 3.2 4.8 0.00 0.00 0.00 67 999.7
20260902142003 29 139 3.2 4.8 0.00 0.00 0.00 69 999.6
20260902141504 28 22 3.2 9.7 0.00 0.00 0.00 69 999.6
20260902141003 28 206 4.8 11.3 0.00 0.00 0.00 69 999.8
20260902140504 28 23 3.2 4.8 0.00 0.00 0.00 69 999.5
20260902140004 28 38 3.2 4.8 0.00 0.00 0.00 71 999.6
20260902135003 27 283 3.2 9.7 0.00 0.00 0.00 72 999.6
20260902134503 27 237 3.2 8.0 0.00 0.00 0.00 73 999.5
20260902133504 27 181 1.6 3.2 0.00 0.00 0.00 75 999.6
20260902132503 26 219 1.6 3.2 0.00 0.00 0.00 76 999.3
20260902132003 26 139 1.6 3.2 0.00 0.00 0.00 77 999.3
20260902131503 26 143 1.6 3.2 0.00 0.00 0.00 77 999.3
20260902131003 26 146 1.6 1.6 0.00 0.00 0.00 79 999.3
20260902130503 25 175 1.6 1.6 0.00 0.00 0.00 80 999.1
20260902125504 25 128 0.0 1.6 0.00 0.00 0.00 82 999.2
20260902124504 24 124 0.0 0.0 0.00 0.00 0.00 84 999.1
20260902124003 24 124 0.0 0.0 0.00 0.00 0.00 84 999.0
20260902123503 24 125 0.0 0.0 0.00 0.00 0.00 84 999.0
20260902123003 24 125 0.0 0.0 0.00 0.00 0.00 84 999.1
20260902122503 24 125 0.0 1.6 0.00 0.00 0.00 83 998.7
20260902122004 24 107 0.0 1.6 0.00 0.00 0.00 83 998.7
20260902121504 25 116 0.0 1.6 0.00 0.00 0.00 82 998.9
20260902121003 25 263 0.0 1.6 0.00 0.00 0.00 81 998.8
20260902120503 25 80 1.6 8.0 0.00 0.00 0.00 80 998.6
20260902120003 25 86 0.0 1.6 0.00 0.00 0.00 79 998.6
20260902115504 25 94 1.6 3.2 0.00 0.00 0.00 79 998.6
20260902115004 25 95 0.0 1.6 0.00 0.00 0.00 79 998.6
20260902114004 25 174 1.6 1.6 0.00 0.00 0.00 79 998.6
20260902113503 25 121 0.0 1.6 0.00 0.00 0.00 79 998.5
20260902113003 25 138 1.6 3.2 0.00 0.00 0.00 79 998.4
20260902112503 25 173 1.6 4.8 0.00 0.00 0.00 79 998.6
20260902112003 25 177 1.6 4.8 0.00 0.00 0.00 80 998.7
20260902111503 25 147 1.6 3.2 0.00 0.00 0.00 81 998.6
20260902111004 25 132 0.0 1.6 0.00 0.00 0.00 82 998.8
20260902105504 24 146 0.0 0.0 0.00 0.00 0.00 84 998.7
20260902105004 24 146 0.0 0.0 0.00 0.00 0.00 84 998.7
20260902104503 25 146 0.0 0.0 0.00 0.00 0.00 84 998.6
20260902104003 25 146 0.0 0.0 0.00 0.00 0.00 84 998.5
20260902103503 25 146 0.0 0.0 0.00 0.00 0.00 84 998.5
20260902103003 25 146 0.0 0.0 0.00 0.00 0.00 84 998.4
20260902101503 25 145 0.0 0.0 0.00 0.00 0.00 84 998.7
20260902101003 25 145 0.0 0.0 0.00 0.00 0.00 84 998.6
20260902100504 25 145 0.0 0.0 0.00 0.00 0.00 84 998.5
20260902100004 25 145 0.0 0.0 0.00 0.00 0.00 83 998.7
20260902095504 25 145 0.0 0.0 0.00 0.00 0.00 83 998.6
20260902094503 25 145 0.0 0.0 0.00 0.00 0.00 83 998.8
20260902094003 25 145 0.0 0.0 0.00 0.00 0.00 82 998.7
20260902093503 25 145 0.0 0.0 0.00 0.00 0.00 82 998.7
20260902093003 25 145 0.0 0.0 0.00 0.00 0.00 81 998.8
20260902092504 25 145 1.6 1.6 0.00 0.00 0.00 81 998.5
20260902092004 25 145 1.6 1.6 0.00 0.00 0.00 81 998.7
20260902091504 25 144 1.6 1.6 0.00 0.00 0.00 81 998.6
20260902091004 25 144 1.6 1.6 0.00 0.00 0.00 82 998.9
20260902090503 25 144 0.0 1.6 0.00 0.00 0.00 81 998.9
20260902090003 25 144 0.0 1.6 0.00 0.00 0.00 81 998.7
20260902085503 25 144 0.0 1.6 0.00 0.00 0.00 81 998.9
20260902085003 25 144 0.0 3.2 0.00 0.00 0.00 81 998.6
20260902084503 25 146 1.6 3.2 0.00 0.00 0.00 81 998.7
20260902084004 25 137 0.0 1.6 0.00 0.00 0.00 80 998.8
20260902083504 25 134 0.0 3.2 0.00 0.00 0.00 80 998.8
20260902083004 25 146 1.6 3.2 0.00 0.00 0.00 80 998.8
20260902082504 25 118 0.0 1.6 0.00 0.00 0.00 80 998.6
20260902080503 26 148 1.6 3.2 0.00 0.00 0.00 79 998.6
20260902080003 26 128 1.6 3.2 0.00 0.00 0.00 78 998.8
20260902075503 26 121 0.0 1.6 0.00 0.00 0.00 78 998.8
20260902075003 26 134 1.6 3.2 0.00 0.00 0.00 78 998.9
20260902074503 26 140 1.6 3.2 0.00 0.00 0.00 78 999.0
20260902074004 26 135 0.0 1.6 0.00 0.00 0.00 78 998.8
20260902073504 26 139 1.6 3.2 0.00 0.00 0.00 78 998.8
20260902073004 26 154 1.6 3.2 0.00 0.00 0.00 77 999.0
20260902072504 26 163 1.6 3.2 0.00 0.00 0.00 77 998.8
20260902072004 26 135 0.0 1.6 0.00 0.00 0.00 77 998.8
20260902071003 26 128 0.0 3.2 0.00 0.00 0.00 76 999.1
20260902070504 26 116 1.6 3.2 0.00 0.00 0.00 76 999.2
20260902065503 27 131 1.6 3.2 0.00 0.00 0.00 75 999.1
20260902064504 27 115 1.6 3.2 0.00 0.00 0.00 75 999.0